Time,TemperatureF,DewpointF,PressureIn,WindDirection,WindDirectionDegrees,WindSpeedMPH,WindSpeedGustMPH,Humidity,HourlyPrecipIn,Conditions,Clouds,dailyrainin,SolarRadiationWatts/m^2,SoftwareType,DateUTC
2013-02-13 00:11:00,50.0,43.0,-100.00,WNW,289,5.0,14.0,76,-99.99,,,0.00,0.000000,,2013-02-13 08:11:00,
2013-02-13 01:11:00,50.0,42.0,-100.00,WNW,297,5.0,14.0,74,-99.99,,,0.00,0.000000,,2013-02-13 09:11:00,
2013-02-13 02:11:00,48.0,42.0,-100.00,WNW,290,6.0,16.0,77,-99.99,,,0.00,0.000000,,2013-02-13 10:11:00,
2013-02-13 03:11:00,48.0,42.0,-100.00,WNW,292,7.0,23.0,80,-99.99,,,0.00,0.000000,,2013-02-13 11:11:00,
2013-02-13 04:11:00,48.0,42.0,-100.00,WNW,291,6.0,18.0,78,-99.99,,,0.00,0.000000,,2013-02-13 12:11:00,
2013-02-13 05:11:00,48.0,42.0,-100.00,WNW,295,6.0,14.0,78,-99.99,,,0.00,0.000000,,2013-02-13 13:11:00,
2013-02-13 06:11:00,48.0,42.0,-100.00,WNW,289,7.0,17.0,77,-99.99,,,0.00,0.000000,,2013-02-13 14:11:00,
2013-02-13 07:11:00,48.0,42.0,-100.00,WNW,299,8.0,18.0,80,-99.99,,,0.00,0.000000,,2013-02-13 15:11:00,
2013-02-13 08:11:00,48.0,42.0,-100.00,WNW,296,7.0,18.0,81,-99.99,,,0.00,0.930000,,2013-02-13 16:11:00,
2013-02-13 09:11:00,48.0,42.0,-100.00,NW,304,7.0,17.0,81,-99.99,,,0.00,75.889999,,2013-02-13 17:11:00,
2013-02-13 10:11:00,48.0,43.0,-100.00,NW,306,8.0,19.0,82,-99.99,,,0.00,82.400002,,2013-02-13 18:11:00,
2013-02-13 12:11:00,51.0,42.0,-100.00,WNW,299,8.0,20.0,71,-99.99,,,0.00,202.220001,,2013-02-13 20:11:00,
2013-02-13 13:11:00,53.0,40.0,-100.00,WNW,296,7.0,19.0,60,-99.99,,,0.00,401.769989,,2013-02-13 21:11:00,
2013-02-13 14:11:00,52.0,39.0,-100.00,NW,305,7.0,18.0,60,-99.99,,,0.00,326.350006,,2013-02-13 22:11:00,
2013-02-13 15:11:00,52.0,38.0,-100.00,WNW,302,9.0,20.0,59,-99.99,,,0.00,134.000000,,2013-02-13 23:11:00,
2013-02-13 16:11:00,50.0,38.0,-100.00,WNW,299,7.0,16.0,63,-99.99,,,0.00,101.919998,,2013-02-14 00:11:00,
2013-02-13 17:11:00,51.0,37.0,-100.00,WNW,295,5.0,14.0,59,-99.99,,,0.00,105.760002,,2013-02-14 01:11:00,
2013-02-13 18:11:00,49.0,38.0,-100.00,WNW,297,4.0,11.0,65,-99.99,,,0.00,19.760000,,2013-02-14 02:11:00,
2013-02-13 19:11:00,48.0,38.0,-100.00,WNW,299,5.0,12.0,69,-99.99,,,0.00,0.000000,,2013-02-14 03:11:00,
2013-02-13 20:11:00,47.0,38.0,-100.00,SW,220,4.0,12.0,68,-99.99,,,0.00,0.000000,,2013-02-14 04:11:00,
2013-02-13 21:11:00,46.0,37.0,-100.00,SW,233,3.0,10.0,70,-99.99,,,0.00,0.000000,,2013-02-14 05:11:00,
2013-02-13 22:11:00,46.0,37.0,-100.00,West,265,3.0,8.0,69,-99.99,,,0.00,0.000000,,2013-02-14 06:11:00,
2013-02-13 23:11:00,46.0,37.0,-100.00,NW,312,5.0,10.0,70,-99.99,,,0.00,0.000000,,2013-02-14 07:11:00,